SCP
0 0 0 0 0 0 0 0 0 0 -0 -0 -0 0 -0 0 0 -0 0 0 0 0 0 0 0 0 0 0 0 0 0 0 0 -0 0 0 0 -0 0 0 0 0 0 0
0 0 0 0 0 0 0 0 0 0 0 -0 -0 -0 -0 -0 0 -0 0 0 0 0 0 0 0 0 0 0 0 0 0 0 0 0 0 0 -0 0 0 0 0 0 0 0
0 0 0 0 0 0 0 0 0 0 0 0 -0 -0 -0 -0 0 -0 0 0 0 0 0 0 0 0 0 0 0 0 0 0 0 0 0 0 0 0 0 -0 0 0 -0 0
0 0 0 0 0 -0 0 0 0 0 0 0 -0 0 -0 -0 -0 0 -0 0 -0 0 0 0 0 0 0 0 0 0 0 0 0 0 0 0 0 -0 -0 -0 0 0 0 0
0 0 0 0 0 -0 0 0 0 0 0 0 -0 -0 -0 -0 -0 -0 -0 -0 -0 0 0 0 0 0 0 0 0 0 0 0 0 0 0 0 0 0 0 0 0 0 0 0
0 0 0 0 0 0 0 0 0 0 0 0 -0 0 -0 -0 -0 -0 -0 -0 0 0 0 0 0 0 0 0 0 0 0 0 0 0 0 0 0 0 0 0 0 0 0 0
0 0 0 0 0 0 0 0 0 0 0 0 0 -0 -0 -0 -0 -0 -0 -0 0 0 0 0 0 0 0 0 0 0 0 0 0 0 0 0 0 0 0 0 0 0 0 -0
0 0 0 0 0 0 0 0 0 0 0 0 -0 -0 0 -0 0 0 0 0 0 0 0 0 0 0 0 0 0 0 0 0 0 0 0 0 0 0 0 0 -0 0 0 -0
0 0 0 0 0 0 0 0 0 0 0 0 0 0 -0 0 0 0 0 0 0 0 0 0 0 0 0 0 0 0 0 0 0 0 0 0 0 0 0 0 0 -0 -0 -0
0 0 0 0 0 0 0 0 0 0 0 0 0 0 0 0 0 0 0 0 0 0 0 0 0 0 0 0 0 0 0 0 0 0 0 0 0 0 0 0 0 -0 -0 -0
0 0 0 0 0 0 0 0 0 0 0 0 0 0 0 0 0 0 0 0 0 0 0 0 0 0 0 0 0 0 0 0 0 0 0 0 0 0 0 0 -0 -0 -0 0
0 0 0 0 0 0 0 0 0 0 0 0 0 -0 -0 -0 -0 0 0 0 0 0 0 0 0 0 0 0 0 0 0 0 0 0 0 0 0 0 0 0 -0 0 -0 0
0 0 0 0 0 0 0 0 0 0 0 0 0 -0 -0 -0 0 0 0 0 0 0 0 0 0 0 0 0 0 0 0 0 0 0 0 0 0 0 0 0 0 0 0 0
0 0 0 0 0 0 0 0 0 0 0 0 -0 0 -0 -0 -0 0 0 0 0 0 0 0 0 0 0 0 0 0 0 0 0 0 0 0 0 0 0 0 0 0 0 0
0 0 0 0 0 0 0 0 0 0 0 0 0 -0 -0 -0 0 -0 -0 0 0 0 0 0 0 0 0 0 0 0 0 0 0 0 0 0 0 0 -0 -0 -0 -0 -0 -0
0 0 0 0 0 0 0 0 0 0 0 -0 0 0 0 -0 -0 -0 0 -0 0 0 0 0 0 0 0 0 0 0 0 0 0 0 0 0 0 0 0 0 -0 -0 -0 -0
0 0 0 0 0 0 0 0 0 0 0 0 0 0 -0 -0 -0 -0 0 0 0 0 0 0 0 0 0 0 0 0 0 0 0 0 -0 0 0 0 0 0 0 -0 -0 0
0 -0 0 0 0 0 0 0 0 0 0 0 -0 0 0 0 -0 0 0 0 0 0 0 0 0 0 0 0 0 0 0 0 0 0 0 0 0 0 0 0 0 0 0 0
-0 0 0 0 0 0 0 0 0 0 0 -0 -0 -0 0 0 0 -0 -0 0 0 0 0 0 0 0 0 0 -0 -0 0 0 0 0 0 0 0 0 0 0 0 0 0 0
0 0 0 0 0 0 0 0 0 0 0 -0 -0 0 0 0 0 0 0 0 0 0 0 0 0 0 -0 0 0 -0 0 0 0 0 0 0 0 0 0 0 0 0 0 0
0 0 0 0 0 0 0 0 0 0 0 -0 -0 0 0 0 0 0 0 0 0 0 0 0 0 0 -0 -0 -0 -0 0 0 0 0 0 0 0 0 0 0 0 0 0 0
0 0 0 0 0 0 0 0 0 0 0 0 -0 0 0 0 0 0 0 0 0 0 0 0 0 0 0 0 0 0 0 0 0 0 -0 -0 -0 0 0 0 0 0 0 0
0 0 0 0 0 0 0 0 0 0 0 0 0 0 0 0 0 0 0 0 0 0 0 0 0 0 0 0 0 0 0 -0 -0 -0 -0 -0 -0 0 0 0 0 0 0 0
0 0 0 0 0 0 0 0 0 0 0 0 0 0 0 0 0 0 0 0 0 0 0 0 0 0 0 0 0 0 0 0 0 0 0 0 0 0 0 0 0 0 0 0
0 0 0 0 0 0 0 0 0 0 0 0 0 0 0 0 0 0 0 0 0 0 0 0 0 0 0 0 0 0 0 0 0 0 0 0 0 0 0 0 0 0 0 0
0 0 0 0 0 0 0 0 0 -0 0 0 0 0 0 0 0 0 0 0 0 0 0 0 0 0 0 0 0 0 0 0 0 0 0 0 0 0 0 0 0 0 0 0
0 -0 0 0 0 0 0 0 -0 0 0 0 0 0 0 0 0 0 0 0 0 0 0 0 0 0 0 0 0 0 0 0 0 0 0 0 0 0 0 0 0 0 0 0
Wind_Speed_500mb
72 71 73 77 81 73 44 29 8 59 17 20 9 9 21 20 22 17 12 8 10 6 12 28 17 36 11 51 16 11 2 10 23 35 5 30 25 31 18 18 16 1 3 4
69 68 68 73 75 68 46 11 11 28 43 10 11 17 19 22 23 19 7 9 15 12 3 14 11 25 7 37 28 19 13 6 20 20 12 12 26 17 18 13 5 17 10 4
66 65 63 66 70 61 28 11 10 17 23 17 15 14 18 34 34 16 22 8 13 11 13 13 6 16 11 27 33 21 16 5 9 15 18 15 17 24 27 26 9 11 17 12
63 61 60 60 64 62 18 20 7 11 10 16 26 25 26 25 25 19 29 8 27 21 12 6 8 8 5 12 8 9 3 7 8 11 7 6 15 34 35 34 28 17 23 21
59 59 55 52 55 56 54 12 13 14 15 22 22 21 18 23 24 8 19 18 28 21 10 11 12 8 5 4 5 7 0 6 4 8 8 9 8 18 23 20 16 12 8 9
56 53 52 46 45 50 22 26 23 10 14 20 14 16 21 23 35 15 21 17 15 10 10 24 17 6 5 4 4 7 8 10 5 9 3 13 11 15 21 11 11 11 13 14
49 48 46 41 35 36 28 26 18 8 9 13 11 27 32 27 34 15 29 30 5 13 28 10 7 8 0 5 7 3 15 10 4 8 9 12 7 2 12 10 9 5 16 30
44 44 42 36 34 30 33 24 10 8 10 19 24 27 16 34 25 16 11 21 25 33 15 2 3 3 6 8 11 6 2 10 8 10 8 4 2 10 14 12 6 9 22 33
41 40 35 33 32 29 31 19 12 10 13 4 14 19 21 11 13 10 12 36 21 20 4 2 5 6 6 10 8 7 10 10 8 8 10 14 11 14 8 7 7 23 34 39
39 37 34 31 30 28 31 20 20 7 11 15 8 9 13 12 9 7 11 24 16 15 5 2 4 4 2 12 16 12 8 5 13 9 5 4 4 13 12 12 1 38 49 53
37 35 31 31 27 25 30 31 12 10 12 40 20 15 31 35 15 6 17 14 2 6 4 1 4 5 7 5 7 7 12 13 7 6 6 10 7 10 13 13 38 45 46 39
36 33 32 34 26 24 27 28 22 24 27 44 63 54 36 42 35 29 8 9 8 5 5 3 4 6 4 8 12 3 7 4 11 4 4 8 5 7 3 25 50 38 50 49
35 33 30 34 29 29 23 33 25 21 21 40 14 3 4 18 15 11 8 6 7 7 13 5 5 8 2 8 9 9 5 4 7 13 10 13 15 23 32 40 50 45 51 55
37 34 30 33 29 28 23 25 20 18 14 9 15 19 30 16 6 9 18 30 28 27 22 12 6 5 2 4 0 3 2 14 16 11 14 29 22 27 47 58 56 57 49 47
39 33 29 30 25 28 25 20 17 10 7 8 28 46 3 14 16 13 15 27 30 27 5 6 5 5 4 3 3 5 3 11 9 9 31 22 30 35 51 62 59 58 58 49
37 33 27 24 19 19 16 9 11 15 15 11 8 18 12 12 16 18 15 27 20 11 7 6 10 5 4 2 3 7 2 2 24 23 36 50 49 45 46 65 53 48 45 39
35 31 27 21 19 16 16 7 5 12 14 8 10 11 10 16 4 7 12 15 12 12 7 6 5 5 1 4 2 13 13 23 52 67 90 53 36 40 49 55 51 45 43 39
34 30 22 19 20 20 20 13 17 11 13 11 6 8 11 8 5 2 8 7 8 8 5 6 5 6 3 5 8 19 33 51 54 42 47 62 65 57 50 45 44 43 41 38
31 24 14 18 13 9 9 15 16 19 14 8 5 6 7 15 5 3 6 3 3 4 3 2 2 4 5 2 30 41 44 32 50 59 66 60 59 54 48 41 36 39 37 35
16 6 6 6 6 9 10 6 8 10 11 14 8 6 7 8 5 3 5 3 1 2 7 13 8 5 7 21 32 15 51 67 68 66 46 49 48 49 42 35 32 34 36 35
3 3 7 6 9 7 7 7 8 10 7 12 12 14 8 7 4 4 5 2 3 2 3 3 3 5 6 25 26 39 48 50 39 48 57 49 56 51 42 38 35 35 34 32
6 7 16 4 6 6 5 6 4 10 6 9 7 4 9 8 5 3 1 2 3 2 7 1 4 6 25 34 32 45 49 37 44 47 50 51 45 40 39 40 38 34 32 29
4 6 5 3 5 6 10 12 7 5 5 2 2 2 4 6 3 2 3 3 3 3 2 1 1 14 30 38 50 51 34 43 53 50 50 48 44 37 33 38 34 32 30 26
6 7 7 8 7 8 7 4 3 3 3 3 4 4 3 5 3 2 2 3 2 0 2 2 4 24 35 42 52 53 41 49 52 53 51 47 43 38 34 31 32 30 28 27
8 8 8 11 12 10 7 7 4 4 2 6 4 3 3 3 2 1 0 3 4 4 4 3 11 40 48 52 55 49 48 50 50 49 47 42 35 36 37 33 32 29 29 29
8 12 7 9 4 7 6 9 4 1 3 6 1 3 4 4 1 4 6 4 6 3 3 2 26 42 51 54 53 46 48 46 43 41 39 35 33 35 38 37 33 32 29 30
10 11 19 15 12 9 6 5 3 2 3 3 2 6 3 1 4 5 6 5 0 2 3 9 37 49 57 56 45 51 54 48 44 41 40 37 36 36 39 41 37 33 29 27
Wind_Direction_500mb
359 1 360 4 4 4 22 38 58 16 21 41 22 356 324 297 312 6 13 305 291 300 75 157 150 184 165 204 167 199 264 127 160 173 133 180 173 182 173 188 193 219 1 244
358 3 1 3 9 3 3 17 342 17 36 38 7 327 348 352 342 350 40 319 349 340 37 146 146 185 202 171 186 181 187 138 144 147 145 156 196 179 174 126 140 210 206 225
357 360 3 3 8 9 21 21 12 348 31 34 349 342 358 359 351 340 344 307 330 357 24 30 125 176 38 181 193 198 142 112 137 158 156 149 179 184 192 191 185 176 227 233
355 357 3 3 8 17 43 30 40 355 338 352 344 4 360 350 358 339 346 11 20 11 20 28 58 32 99 96 134 106 191 120 86 49 115 161 162 183 187 195 215 201 250 220
355 355 1 6 9 18 40 41 351 336 302 326 340 4 349 337 341 301 344 349 340 338 21 17 13 344 43 100 105 125 121 108 110 69 104 142 124 161 181 191 199 234 257 159
351 355 358 5 10 17 32 17 349 329 305 337 353 354 340 324 337 309 321 312 317 320 3 314 292 329 45 62 152 135 152 139 126 137 132 143 121 173 173 156 170 201 180 142
348 350 354 0 8 13 15 8 351 334 300 323 328 313 323 330 329 303 305 325 237 343 322 300 256 278 42 92 81 51 147 119 58 125 166 184 63 302 177 135 111 146 118 141
343 346 351 357 0 5 360 354 354 333 299 307 308 333 320 325 335 335 303 327 313 318 308 221 134 17 162 85 60 132 20 130 107 153 188 73 295 179 166 186 154 142 131 128
337 342 347 349 352 358 350 0 350 331 300 264 315 313 308 316 336 321 315 339 343 341 265 194 161 165 166 162 120 82 83 85 135 170 179 197 194 171 166 179 237 162 153 148
330 334 338 343 347 348 335 333 325 267 275 283 299 291 307 305 332 275 296 332 326 356 344 118 210 202 309 176 170 159 133 85 182 156 154 224 260 143 160 190 229 158 155 153
322 326 329 335 342 338 324 319 306 277 265 286 260 272 276 288 287 297 314 317 341 316 31 282 216 235 216 182 151 179 163 155 167 131 142 204 125 147 195 112 128 141 148 145
314 317 321 329 333 328 316 309 303 293 274 272 294 286 277 262 273 262 276 277 296 322 328 252 297 245 211 189 182 181 197 220 159 214 96 356 330 297 211 151 138 133 131 135
306 309 313 318 326 320 311 302 299 304 286 309 292 230 311 306 253 219 264 270 310 281 312 290 283 265 196 192 201 136 137 151 94 163 51 64 88 105 118 131 127 130 134 134
301 303 309 312 316 312 304 292 300 292 287 284 282 298 299 256 214 303 287 290 302 297 279 228 251 258 317 237 203 199 78 141 128 91 117 101 80 115 129 127 125 122 121 126
298 304 305 309 310 311 301 281 278 247 290 290 291 311 292 201 248 289 294 298 295 289 245 228 238 262 293 234 196 147 241 155 183 155 155 105 126 128 131 123 124 129 133 125
298 298 297 298 297 309 318 287 248 240 313 300 295 309 289 300 295 268 254 287 283 234 221 243 280 264 240 220 109 15 275 176 121 123 127 113 121 122 124 126 125 129 130 131
292 291 289 280 272 265 251 245 245 309 298 270 280 282 273 314 273 20 303 272 275 228 239 188 252 287 278 11 80 351 79 117 125 137 131 115 125 120 125 128 129 130 125 125
289 283 277 276 270 264 267 249 239 251 275 251 271 277 295 325 251 69 292 247 254 258 291 127 294 334 184 82 33 91 114 114 111 123 129 131 131 131 129 131 134 130 128 130
296 290 261 279 258 221 210 214 252 267 233 281 265 279 291 332 286 222 259 294 315 331 318 109 178 3 1 104 135 136 134 127 124 121 129 129 131 135 136 137 135 133 132 131
300 279 207 215 206 216 256 270 218 207 211 224 250 258 269 306 316 275 326 89 203 266 17 344 40 81 74 146 140 135 140 135 137 122 127 134 134 141 143 141 140 138 135 135
283 224 215 226 248 244 208 226 208 186 226 218 231 226 277 278 291 315 15 345 300 317 66 180 215 112 132 158 155 145 142 142 145 146 148 150 146 148 147 145 144 140 136 132
281 286 296 271 199 210 226 218 198 219 243 194 227 236 243 280 276 271 353 337 268 18 328 342 100 121 152 161 154 150 145 143 143 143 146 148 146 146 147 146 142 137 132 129
234 198 244 215 187 214 219 202 202 227 193 239 249 237 259 270 284 252 307 336 10 304 15 2 76 135 154 156 158 153 149 148 144 144 146 146 144 145 147 143 137 134 132 125
237 217 229 218 194 235 212 232 224 177 149 348 318 281 297 294 250 20 341 50 262 330 267 208 190 167 156 159 163 157 148 149 147 147 149 147 144 143 141 139 136 137 133 124
238 217 234 224 252 271 257 229 194 153 24 356 312 256 280 267 222 1 100 186 244 238 231 218 179 167 162 161 163 155 147 148 147 149 148 145 143 143 140 139 137 136 127 119
230 231 241 235 258 247 236 213 164 238 305 325 308 292 260 239 274 202 206 185 218 253 233 256 161 161 167 164 161 158 147 147 148 151 153 150 150 149 146 141 138 131 124 118
221 234 222 235 267 262 267 223 210 260 272 255 185 236 261 55 241 228 193 214 183 236 259 171 166 163 161 158 155 157 154 146 142 149 154 153 152 150 147 144 141 132 126 120
Wind_Speed_850mb
72 71 73 77 81 73 44 29 8 59 17 20 9 9 21 20 22 17 12 8 10 6 12 28 17 36 11 51 16 11 2 10 23 35 5 30 25 31 18 18 16 1 3 4
69 68 68 73 75 68 46 11 11 28 43 10 11 17 19 22 23 19 7 9 15 12 3 14 11 25 7 37 28 19 13 6 20 20 12 12 26 17 18 13 5 17 10 4
66 65 63 66 70 61 28 11 10 17 23 17 15 14 18 34 34 16 22 8 13 11 13 13 6 16 11 27 33 21 16 5 9 15 18 15 17 24 27 26 9 11 17 12
63 61 60 60 64 62 18 20 7 11 10 16 26 25 26 25 25 19 29 8 27 21 12 6 8 8 5 12 8 9 3 7 8 11 7 6 15 34 35 34 28 17 23 21
59 59 55 52 55 56 54 12 13 14 15 22 22 21 18 23 24 8 19 18 28 21 10 11 12 8 5 4 5 7 0 6 4 8 8 9 8 18 23 20 16 12 8 9
56 53 52 46 45 50 22 26 23 10 14 20 14 16 21 23 35 15 21 17 15 10 10 24 17 6 5 4 4 7 8 10 5 9 3 13 11 15 21 11 11 11 13 14
49 48 46 41 35 36 28 26 18 8 9 13 11 27 32 27 34 15 29 30 5 13 28 10 7 8 0 5 7 3 15 10 4 8 9 12 7 2 12 10 9 5 16 30
44 44 42 36 34 30 33 24 10 8 10 19 24 27 16 34 25 16 11 21 25 33 15 2 3 3 6 8 11 6 2 10 8 10 8 4 2 10 14 12 6 9 22 33
41 40 35 33 32 29 31 19 12 10 13 4 14 19 21 11 13 10 12 36 21 20 4 2 5 6 6 10 8 7 10 10 8 8 10 14 11 14 8 7 7 23 34 39
39 37 34 31 30 28 31 20 20 7 11 15 8 9 13 12 9 7 11 24 16 15 5 2 4 4 2 12 16 12 8 5 13 9 5 4 4 13 12 12 1 38 49 53
37 35 31 31 27 25 30 31 12 10 12 40 20 15 31 35 15 6 17 14 2 6 4 1 4 5 7 5 7 7 12 13 7 6 6 10 7 10 13 13 38 45 46 39
36 33 32 34 26 24 27 28 22 24 27 44 63 54 36 42 35 29 8 9 8 5 5 3 4 6 4 8 12 3 7 4 11 4 4 8 5 7 3 25 50 38 50 49
35 33 30 34 29 29 23 33 25 21 21 40 14 3 4 18 15 11 8 6 7 7 13 5 5 8 2 8 9 9 5 4 7 13 10 13 15 23 32 40 50 45 51 55
37 34 30 33 29 28 23 25 20 18 14 9 15 19 30 16 6 9 18 30 28 27 22 12 6 5 2 4 0 3 2 14 16 11 14 29 22 27 47 58 56 57 49 47
39 33 29 30 25 28 25 20 17 10 7 8 28 46 3 14 16 13 15 27 30 27 5 6 5 5 4 3 3 5 3 11 9 9 31 22 30 35 51 62 59 58 58 49
37 33 27 24 19 19 16 9 11 15 15 11 8 18 12 12 16 18 15 27 20 11 7 6 10 5 4 2 3 7 2 2 24 23 36 50 49 45 46 65 53 48 45 39
35 31 27 21 19 16 16 7 5 12 14 8 10 11 10 16 4 7 12 15 12 12 7 6 5 5 1 4 2 13 13 23 52 67 90 53 36 40 49 55 51 45 43 39
34 30 22 19 20 20 20 13 17 11 13 11 6 8 11 8 5 2 8 7 8 8 5 6 5 6 3 5 8 19 33 51 54 42 47 62 65 57 50 45 44 43 41 38
31 24 14 18 13 9 9 15 16 19 14 8 5 6 7 15 5 3 6 3 3 4 3 2 2 4 5 2 30 41 44 32 50 59 66 60 59 54 48 41 36 39 37 35
16 6 6 6 6 9 10 6 8 10 11 14 8 6 7 8 5 3 5 3 1 2 7 13 8 5 7 21 32 15 51 67 68 66 46 49 48 49 42 35 32 34 36 35
3 3 7 6 9 7 7 7 8 10 7 12 12 14 8 7 4 4 5 2 3 2 3 3 3 5 6 25 26 39 48 50 39 48 57 49 56 51 42 38 35 35 34 32
6 7 16 4 6 6 5 6 4 10 6 9 7 4 9 8 5 3 1 2 3 2 7 1 4 6 25 34 32 45 49 37 44 47 50 51 45 40 39 40 38 34 32 29
4 6 5 3 5 6 10 12 7 5 5 2 2 2 4 6 3 2 3 3 3 3 2 1 1 14 30 38 50 51 34 43 53 50 50 48 44 37 33 38 34 32 30 26
6 7 7 8 7 8 7 4 3 3 3 3 4 4 3 5 3 2 2 3 2 0 2 2 4 24 35 42 52 53 41 49 52 53 51 47 43 38 34 31 32 30 28 27
8 8 8 11 12 10 7 7 4 4 2 6 4 3 3 3 2 1 0 3 4 4 4 3 11 40 48 52 55 49 48 50 50 49 47 42 35 36 37 33 32 29 29 29
8 12 7 9 4 7 6 9 4 1 3 6 1 3 4 4 1 4 6 4 6 3 3 2 26 42 51 54 53 46 48 46 43 41 39 35 33 35 38 37 33 32 29 30
10 11 19 15 12 9 6 5 3 2 3 3 2 6 3 1 4 5 6 5 0 2 3 9 37 49 57 56 45 51 54 48 44 41 40 37 36 36 39 41 37 33 29 27
Wind_Direction_850mb
359 1 360 4 4 4 22 38 58 16 21 41 22 356 324 297 312 6 13 305 291 300 75 157 150 184 165 204 167 199 264 127 160 173 133 180 173 182 173 188 193 219 1 244
358 3 1 3 9 3 3 17 342 17 36 38 7 327 348 352 342 350 40 319 349 340 37 146 146 185 202 171 186 181 187 138 144 147 145 156 196 179 174 126 140 210 206 225
357 360 3 3 8 9 21 21 12 348 31 34 349 342 358 359 351 340 344 307 330 357 24 30 125 176 38 181 193 198 142 112 137 158 156 149 179 184 192 191 185 176 227 233
355 357 3 3 8 17 43 30 40 355 338 352 344 4 360 350 358 339 346 11 20 11 20 28 58 32 99 96 134 106 191 120 86 49 115 161 162 183 187 195 215 201 250 220
355 355 1 6 9 18 40 41 351 336 302 326 340 4 349 337 341 301 344 349 340 338 21 17 13 344 43 100 105 125 121 108 110 69 104 142 124 161 181 191 199 234 257 159
351 355 358 5 10 17 32 17 349 329 305 337 353 354 340 324 337 309 321 312 317 320 3 314 292 329 45 62 152 135 152 139 126 137 132 143 121 173 173 156 170 201 180 142
348 350 354 0 8 13 15 8 351 334 300 323 328 313 323 330 329 303 305 325 237 343 322 300 256 278 42 92 81 51 147 119 58 125 166 184 63 302 177 135 111 146 118 141
343 346 351 357 0 5 360 354 354 333 299 307 308 333 320 325 335 335 303 327 313 318 308 221 134 17 162 85 60 132 20 130 107 153 188 73 295 179 166 186 154 142 131 128
337 342 347 349 352 358 350 0 350 331 300 264 315 313 308 316 336 321 315 339 343 341 265 194 161 165 166 162 120 82 83 85 135 170 179 197 194 171 166 179 237 162 153 148
330 334 338 343 347 348 335 333 325 267 275 283 299 291 307 305 332 275 296 332 326 356 344 118 210 202 309 176 170 159 133 85 182 156 154 224 260 143 160 190 229 158 155 153
322 326 329 335 342 338 324 319 306 277 265 286 260 272 276 288 287 297 314 317 341 316 31 282 216 235 216 182 151 179 163 155 167 131 142 204 125 147 195 112 128 141 148 145
314 317 321 329 333 328 316 309 303 293 274 272 294 286 277 262 273 262 276 277 296 322 328 252 297 245 211 189 182 181 197 220 159 214 96 356 330 297 211 151 138 133 131 135
306 309 313 318 326 320 311 302 299 304 286 309 292 230 311 306 253 219 264 270 310 281 312 290 283 265 196 192 201 136 137 151 94 163 51 64 88 105 118 131 127 130 134 134
301 303 309 312 316 312 304 292 300 292 287 284 282 298 299 256 214 303 287 290 302 297 279 228 251 258 317 237 203 199 78 141 128 91 117 101 80 115 129 127 125 122 121 126
298 304 305 309 310 311 301 281 278 247 290 290 291 311 292 201 248 289 294 298 295 289 245 228 238 262 293 234 196 147 241 155 183 155 155 105 126 128 131 123 124 129 133 125
298 298 297 298 297 309 318 287 248 240 313 300 295 309 289 300 295 268 254 287 283 234 221 243 280 264 240 220 109 15 275 176 121 123 127 113 121 122 124 126 125 129 130 131
292 291 289 280 272 265 251 245 245 309 298 270 280 282 273 314 273 20 303 272 275 228 239 188 252 287 278 11 80 351 79 117 125 137 131 115 125 120 125 128 129 130 125 125
289 283 277 276 270 264 267 249 239 251 275 251 271 277 295 325 251 69 292 247 254 258 291 127 294 334 184 82 33 91 114 114 111 123 129 131 131 131 129 131 134 130 128 130
296 290 261 279 258 221 210 214 252 267 233 281 265 279 291 332 286 222 259 294 315 331 318 109 178 3 1 104 135 136 134 127 124 121 129 129 131 135 136 137 135 133 132 131
300 279 207 215 206 216 256 270 218 207 211 224 250 258 269 306 316 275 326 89 203 266 17 344 40 81 74 146 140 135 140 135 137 122 127 134 134 141 143 141 140 138 135 135
283 224 215 226 248 244 208 226 208 186 226 218 231 226 277 278 291 315 15 345 300 317 66 180 215 112 132 158 155 145 142 142 145 146 148 150 146 148 147 145 144 140 136 132
281 286 296 271 199 210 226 218 198 219 243 194 227 236 243 280 276 271 353 337 268 18 328 342 100 121 152 161 154 150 145 143 143 143 146 148 146 146 147 146 142 137 132 129
234 198 244 215 187 214 219 202 202 227 193 239 249 237 259 270 284 252 307 336 10 304 15 2 76 135 154 156 158 153 149 148 144 144 146 146 144 145 147 143 137 134 132 125
237 217 229 218 194 235 212 232 224 177 149 348 318 281 297 294 250 20 341 50 262 330 267 208 190 167 156 159 163 157 148 149 147 147 149 147 144 143 141 139 136 137 133 124
238 217 234 224 252 271 257 229 194 153 24 356 312 256 280 267 222 1 100 186 244 238 231 218 179 167 162 161 163 155 147 148 147 149 148 145 143 143 140 139 137 136 127 119
230 231 241 235 258 247 236 213 164 238 305 325 308 292 260 239 274 202 206 185 218 253 233 256 161 161 167 164 161 158 147 147 148 151 153 150 150 149 146 141 138 131 124 118
221 234 222 235 267 262 267 223 210 260 272 255 185 236 261 55 241 228 193 214 183 236 259 171 166 163 161 158 155 157 154 146 142 149 154 153 152 150 147 144 141 132 126 120